sat.trackr.live / text

‹ back to catalog

STARLINK-11493 [DTC]

NORAD 62410 · 2024-249B

PAYLOAD ACTIVE UNKNOWN

§ Identity

Operator
Country
US
Launch date
2024-12-23
Launch site
AFETR
Launch vehicle
Mass (kg)
RCS (m²)

Purposes: comms

External: N2YO · Heavens-Above · Gunter

§ Orbital elements

Epoch: 2026-09-20T17:54:16.716384Z

Period
91.67 min
Inclination
43.0012°
Eccentricity
0.0001827
Mean motion
15.70870063 rev/d
Perigee alt
355.2 km
Apogee alt
357.6 km
Semi-major
6,734.5 km
B*
7.8841e-4
RAAN
72.3052°
Arg perigee
274.3173°
Mean anomaly
85.7486°
Rev number
10,015

§ Raw data

STARLINK-11493 [DTC]1 62410U 24249B   26263.74602681  .00102096  00000+0  78841-3 0  99952 62410  43.0012  72.3052 0001827 274.3173  85.7486 15.70870063100151

JSON: /api/v1/satellites/62410 · /tle

For live sub-satellite position, see the globe view (requires WebGL).

§ Visibility from observer

Set your observer location to see the next 7 days of passes ≥ 10°. The values pass through the URL so the page stays shareable.

No JS? Fill the form by hand. The geolocation button needs JavaScript.